#timestamp,LO_Frequency,Hit,StdDev 
1586829615.7,286047003.6,N
1586829635.6,286046999.7,N
1586829655.4,286047002.7,N
1586829675.2,286046998.9,N
1586829695.1,286047000.5,N
1586829696.0,286047000.5,N
1586829715.8,286047002.2,N
1586829735.7,286047000.1,N
1586829755.5,286047000.5,N
1586829775.3,286047000.9,N
1586829795.2,286047000.0,N
1586829815.9,286046998.2,N
1586829835.7,286046999.5,N
1586829855.6,286046996.5,N
1586829875.4,286047001.1,N
1586829895.3,286046998.1,N
1586829915.1,286046998.6,N
1586829916.0,286046998.6,N
1586829935.8,286046998.9,N
1586829955.7,286046998.3,N
1586829975.5,286047000.2,N
1586829995.3,286046999.3,N
1586830015.2,286047001.1,N
1586830035.0,286046998.3,N
1586830035.9,286046998.3,N
1586830055.8,286046999.1,N
1586830075.6,286046998.2,N
1586830095.4,286047001.1,N
1586830115.3,286046999.9,N
1586830135.1,286047000.1,N
1586830155.9,286046998.2,N
1586830175.7,286047000.6,N
1586830195.5,286047000.4,N
1586830215.4,286046998.8,N
1586830235.2,286046998.2,N
1586830255.0,286046998.2,N
1586830255.9,286046998.2,N
1586830275.8,286046998.9,N
1586830295.6,286046998.5,N
1586830315.5,286047001.1,N
1586830335.3,286046999.3,N
1586830355.1,286046998.8,N
1586830375.9,286046998.4,N
1586830395.7,286046999.0,N
1586830415.5,286046999.8,N
1586830435.4,286046999.8,N
1586830455.2,286046999.7,N
1586830475.1,286046999.9,N
1586830476.0,286046999.9,N
1586830495.8,286047000.3,N
1586830515.6,286047001.0,N
1586830535.5,286046998.2,N
1586830555.3,286047001.0,N
1586830575.2,286046999.9,N
1586830595.9,286047000.7,N
1586830615.7,286047001.0,N
1586830635.6,286047000.3,N
1586830655.4,286047001.1,N
1586830675.2,286046998.4,N
1586830695.1,286046998.9,N
1586830696.0,286046998.9,N
1586830715.8,286046997.2,N
1586830735.7,286046996.9,N
1586830755.5,286046994.9,Y
1586830775.3,286046999.4,P
1586830795.2,286046996.5,P
1586830815.0,286046995.2,P
1586830815.9,286046995.2,N
1586830835.8,286046997.5,N
1586830855.6,286046997.1,N
1586830875.4,286047001.0,N
1586830895.3,286047003.6,N
1586830915.1,286046998.1,N
1586830935.9,286046998.2,N
1586830955.7,286047000.2,N
1586830975.5,286046999.8,N
1586830995.4,286046999.7,N
1586831015.2,286047000.0,N
1586831035.0,286046998.4,N
1586831035.9,286046998.4,N
1586831055.8,286047001.1,N
1586831075.6,286047001.2,N
1586831095.5,286046998.1,N
1586831115.3,286047000.3,N
1586831135.1,286047000.7,N
1586831155.9,286046999.2,N
1586831175.7,286046999.3,N
1586831195.6,286046998.1,N
1586831215.4,286047000.7,N
1586831235.2,286046999.9,N
1586831255.1,286047000.1,N
1586831256.0,286047000.1,N
1586831275.8,286047002.5,N
1586831295.7,286046999.8,N
1586831315.5,286047002.3,N
1586831335.3,286047000.0,N
1586831355.2,286047000.5,N
1586831375.0,286046998.9,N
1586831375.9,286046998.9,N
1586831395.8,286046998.9,N
1586831415.6,286046997.1,N
1586831435.4,286046997.1,N
1586831455.3,286047001.2,N
1586831475.1,286046998.9,N
1586831495.9,286047000.8,N
1586831515.7,286046998.3,N
1586831535.5,286046999.8,N
1586831555.4,286046999.9,N
1586831575.2,286047002.2,N
1586831595.0,286047001.4,N
1586831595.9,286047001.4,N
1586831615.8,286047002.6,N
1586831635.6,286047001.6,N
1586831655.5,286047000.5,N
1586831675.3,286046999.8,N
1586831695.1,286047002.4,N
1586831715.9,286047000.2,N
1586831735.7,286047000.0,N
1586831755.6,286047000.1,N
1586831775.4,286047002.5,N
1586831795.2,286047000.0,N
1586831815.1,286046999.9,N
1586831816.0,286046999.9,N
1586831835.8,286047001.1,N
1586831855.6,286047002.4,N
1586831875.5,286047002.6,N
1586831895.3,286047001.5,N
1586831915.2,286047002.7,N
1586831935.9,286047001.7,N
1586831955.7,286046999.7,N
1586831975.6,286047004.3,N
1586831995.4,286047000.2,N
1586832015.3,286047000.5,N
1586832035.1,286046999.7,N
1586832036.0,286046999.7,N
1586832055.8,286047002.7,N
1586832075.7,286047002.3,N
1586832095.5,286047002.6,N
1586832115.4,286046999.0,N
1586832135.2,286046998.9,N
1586832155.0,286046999.4,N
1586832155.9,286046999.4,N
1586832175.8,286047000.8,N
1586832195.6,286047001.1,N
1586832215.5,286047000.6,N
1586832235.3,286046998.7,N
1586832255.1,286047000.5,N
1586832275.9,286046999.8,N
1586832295.7,286047000.4,N
1586832315.5,286046999.9,N
1586832335.4,286047000.7,N
1586832355.2,286046996.6,N
1586832375.1,286046998.6,N
1586832376.0,286046998.6,N
1586832395.8,286047001.1,N
1586832415.6,286047001.0,N
1586832435.5,286047000.0,N
1586832455.3,286047000.3,N
1586832475.2,286047001.5,N
1586832495.9,286047002.2,N
1586832515.7,286047001.3,N
1586832535.6,286047003.8,N
1586832555.4,286047005.7,Y
1586832575.3,286047004.8,P
1586832595.1,286047007.5,P
1586832596.0,286047007.5,N
1586832615.8,286047001.8,N
1586832635.7,286047002.7,N
1586832655.5,286047002.1,N
1586832675.3,286047002.6,N
1586832695.2,286046999.9,N
1586832715.0,286046998.5,N
1586832715.9,286046998.5,N
1586832735.8,286047000.6,N
1586832755.6,286047001.2,N
1586832775.4,286047000.5,N
1586832795.3,286047000.0,N
1586832815.1,286047001.6,N
1586832835.8,286047003.8,N
1586832855.7,286047003.3,N
1586832875.5,286047005.5,N
1586832895.4,286047004.0,N
1586832915.2,286047004.4,N
1586832935.0,286047004.0,N
1586832935.9,286047004.0,N
1586832955.8,286047003.4,N
1586832975.6,286047006.0,N
1586832995.5,286047005.5,N
1586833015.3,286047007.1,N
1586833035.1,286047005.6,N
1586833055.9,286047005.7,N
1586833075.7,286047003.0,N
1586833095.5,286047003.1,N
1586833115.4,286047004.1,N
1586833135.2,286047003.6,N
1586833155.1,286047002.9,N
1586833156.0,286047002.9,N
1586833175.8,286047001.4,N
1586833195.6,286047005.5,N
